• In Portugal
  • List of Countries
  • For 7 days
  • Water Temperature
  • Satellite Maps
  • Weather Map
  • Weather Widgets
  • user-avatar
    Login

    Hourly Weather Pischiki

    Today, 24 September, Monday

    Time Temperature Precipitation Wind Pressure Humidity
    00:00 +7°C° 0 mm 3 mps 737 mmHg 90%
    01:00 +7°C° 0 mm 3 mps 736 mmHg 90%
    02:00 +7°C° 0 mm 2 mps 736 mmHg 92%
    03:00 +8°C° 0.5 mm 2 mps 735 mmHg 93%
    04:00 +8°C° 0.5 mm 3 mps 735 mmHg 93%
    05:00 +7°C° 0.5 mm 4 mps 734 mmHg 93%
    06:00 +7°C° 1.8 mm 4 mps 733 mmHg 93%
    07:00 +7°C° 1.8 mm 5 mps 733 mmHg 94%
    08:00 +7°C° 0 mm 6 mps 732 mmHg 93%
    09:00 +7°C° 3 mm 6 mps 731 mmHg 93%
    10:00 +6°C° 3 mm 7 mps 729 mmHg 93%
    11:00 +6°C° 3 mm 7 mps 728 mmHg 92%
    12:00 +8°C° 2.8 mm 7 mps 727 mmHg 93%
    13:00 +8°C° 2.8 mm 6 mps 727 mmHg 94%
    14:00 +8°C° 2.8 mm 6 mps 726 mmHg 94%
    15:00 +8°C° 0.8 mm 7 mps 726 mmHg 93%
    16:00 +6°C° 0.8 mm 8 mps 727 mmHg 91%
    17:00 +6°C° 0.8 mm 9 mps 727 mmHg 90%
    18:00 +5°C° 0.1 mm 9 mps 728 mmHg 89%
    19:00 +5°C° 0.1 mm 8 mps 729 mmHg 88%
    20:00 +5°C° 0.1 mm 8 mps 729 mmHg 88%
    21:00 +5°C° 0 mm 8 mps 730 mmHg 89%
    22:00 +5°C° 0 mm 7 mps 731 mmHg 90%
    23:00 +5°C° 0 mm 7 mps 731 mmHg 91%

    Tomorrow, 25 September, Tuesday

    Time Temperature Precipitation Wind Pressure Humidity
    00:00 +5°C° 0 mm 7 mps 732 mmHg 90%
    01:00 +5°C° 0 mm 7 mps 733 mmHg 89%
    02:00 +5°C° 0 mm 7 mps 734 mmHg 88%
    03:00 +4°C° 0 mm 7 mps 734 mmHg 88%
    04:00 +4°C° 0 mm 6 mps 735 mmHg 89%
    05:00 +3°C° 0 mm 6 mps 735 mmHg 90%
    06:00 +3°C° 0 mm 7 mps 736 mmHg 89%
    07:00 +3°C° 0 mm 7 mps 737 mmHg 88%
    08:00 +3°C° 0 mm 7 mps 737 mmHg 87%
    09:00 +4°C° 0 mm 7 mps 738 mmHg 86%
    10:00 +4°C° 0 mm 7 mps 739 mmHg 84%
    11:00 +4°C° 0 mm 7 mps 739 mmHg 82%
    12:00 +5°C° 0 mm 7 mps 740 mmHg 78%
    13:00 +5°C° 0 mm 7 mps 740 mmHg 75%
    14:00 +6°C° 0 mm 7 mps 741 mmHg 71%
    15:00 +5°C° 0 mm 6 mps 742 mmHg 71%
    16:00 +5°C° 0 mm 6 mps 742 mmHg 72%
    17:00 +6°C° 0 mm 5 mps 743 mmHg 72%
    18:00 +5°C° 0 mm 5 mps 743 mmHg 73%
    19:00 +3°C° 0 mm 5 mps 744 mmHg 73%
    20:00 +2°C° 0 mm 5 mps 745 mmHg 74%
    21:00 +2°C° 0 mm 5 mps 745 mmHg 73%
    22:00 +2°C° 0 mm 5 mps 746 mmHg 73%
    23:00 +1°C° 0 mm 5 mps 747 mmHg 72%

    Day after tomorrow, 26 September, Wednesday

    Time Temperature Precipitation Wind Pressure Humidity
    00:00 +1°C° 0 mm 5 mps 747 mmHg 73%
    01:00 0°C° 0 mm 4 mps 748 mmHg 74%
    02:00 0°C° 0 mm 4 mps 748 mmHg 76%
    03:00 -1°C° 0 mm 4 mps 749 mmHg 77%
    04:00 -1°C° 0 mm 4 mps 749 mmHg 79%
    05:00 0°C° 0 mm 3 mps 749 mmHg 81%
    06:00 0°C° 0 mm 4 mps 750 mmHg 81%
    07:00 +1°C° 0 mm 4 mps 750 mmHg 82%
    08:00 +3°C° 0 mm 4 mps 750 mmHg 82%
    09:00 +5°C° 0 mm 4 mps 750 mmHg 76%
    10:00 +7°C° 0 mm 5 mps 750 mmHg 69%
    11:00 +8°C° 0 mm 5 mps 750 mmHg 63%
    12:00 +9°C° 0 mm 5 mps 749 mmHg 60%
    13:00 +10°C° 0 mm 6 mps 749 mmHg 57%
    14:00 +10°C° 0 mm 6 mps 748 mmHg 55%
    15:00 +10°C° 0 mm 6 mps 748 mmHg 59%
    16:00 +9°C° 0 mm 6 mps 747 mmHg 62%
    17:00 +8°C° 0 mm 5 mps 747 mmHg 66%
    18:00 +7°C° 0.3 mm 6 mps 746 mmHg 70%
    19:00 +6°C° 0.3 mm 7 mps 746 mmHg 74%
    20:00 +5°C° 0.3 mm 7 mps 745 mmHg 78%
    21:00 +5°C° 0.6 mm 8 mps 744 mmHg 80%
    22:00 +5°C° 0.6 mm 8 mps 743 mmHg 83%
    23:00 +5°C° 0.6 mm 9 mps 742 mmHg 85%

    27 September, Thursday

    Time Temperature Precipitation Wind Pressure Humidity
    00:00 +5°C° 0.9 mm 9 mps 741 mmHg 86%
    01:00 +5°C° 0.9 mm 9 mps 740 mmHg 88%
    02:00 +5°C° 0.9 mm 9 mps 740 mmHg 89%
    03:00 +5°C° 0.5 mm 9 mps 739 mmHg 89%
    04:00 +5°C° 0.5 mm 8 mps 739 mmHg 90%
    05:00 +6°C° 0.5 mm 8 mps 738 mmHg 90%
    06:00 +6°C° 0.5 mm 8 mps 738 mmHg 91%
    07:00 +6°C° 0.5 mm 7 mps 738 mmHg 91%
    08:00 +8°C° 0.5 mm 7 mps 738 mmHg 91%
    09:00 +8°C° 0.4 mm 6 mps 738 mmHg 92%
    10:00 +9°C° 0.4 mm 6 mps 738 mmHg 92%
    11:00 +9°C° 0.4 mm 5 mps 738 mmHg 92%
    12:00 +10°C° 0.6 mm 5 mps 738 mmHg 92%
    13:00 +10°C° 0.6 mm 5 mps 738 mmHg 93%
    14:00 +10°C° 0.6 mm 5 mps 738 mmHg 93%
    15:00 +10°C° 0.6 mm 4 mps 738 mmHg 92%
    16:00 +10°C° 0.6 mm 3 mps 738 mmHg 92%
    17:00 +9°C° 0.6 mm 2 mps 738 mmHg 92%
    18:00 +9°C° 0.4 mm 2 mps 738 mmHg 92%
    19:00 +9°C° 0.4 mm 2 mps 738 mmHg 93%
    20:00 +9°C° 0.4 mm 2 mps 738 mmHg 93%
    21:00 +9°C° 0.2 mm 3 mps 738 mmHg 93%
    22:00 +10°C° 0.2 mm 3 mps 738 mmHg 93%
    23:00 +10°C° 0.2 mm 4 mps 738 mmHg 93%

    28 September, Friday

    Time Temperature Precipitation Wind Pressure Humidity
    00:00 +10°C° 0 mm 4 mps 738 mmHg 94%
    01:00 +9°C° 0 mm 5 mps 738 mmHg 94%
    02:00 +9°C° 0 mm 5 mps 737 mmHg 94%
    03:00 +10°C° 0 mm 6 mps 737 mmHg 93%
    04:00 +10°C° 0 mm 8 mps 736 mmHg 91%
    05:00 +11°C° 0 mm 9 mps 735 mmHg 90%
    06:00 +11°C° 0.1 mm 9 mps 735 mmHg 88%
    07:00 +12°C° 0.1 mm 9 mps 735 mmHg 87%
    08:00 +12°C° 0.1 mm 10 mps 735 mmHg 86%
    09:00 +11°C° 0.4 mm 8 mps 735 mmHg 86%
    10:00 +11°C° 0.4 mm 7 mps 736 mmHg 86%
    11:00 +10°C° 0.4 mm 6 mps 736 mmHg 86%
    12:00 +10°C° 0.3 mm 5 mps 736 mmHg 86%
    13:00 +10°C° 0.3 mm 4 mps 737 mmHg 86%
    14:00 +10°C° 0.3 mm 3 mps 737 mmHg 86%
    15:00 +9°C° 0 mm 2 mps 738 mmHg 86%
    16:00 +9°C° 0 mm 2 mps 738 mmHg 86%
    17:00 +9°C° 0 mm 2 mps 738 mmHg 87%
    18:00 +8°C° 0 mm 2 mps 738 mmHg 89%
    19:00 +8°C° 0 mm 1 mps 739 mmHg 91%
    20:00 +8°C° 0 mm 1 mps 739 mmHg 93%
    21:00 +7°C° 0 mm 1 mps 739 mmHg 93%
    22:00 +6°C° 0 mm 2 mps 739 mmHg 94%
    23:00 +6°C° 0 mm 2 mps 739 mmHg 94%

    29 September, Saturday

    Time Temperature Precipitation Wind Pressure Humidity
    00:00 +6°C° 0 mm 2 mps 740 mmHg 95%
    01:00 +6°C° 0 mm 2 mps 740 mmHg 95%
    02:00 +5°C° 0 mm 3 mps 740 mmHg 96%
    03:00 +5°C° 0 mm 3 mps 740 mmHg 95%
    04:00 +7°C° 0 mm 3 mps 740 mmHg 93%
    05:00 +6°C° 0 mm 4 mps 741 mmHg 92%
    06:00 +5°C° 0 mm 4 mps 741 mmHg 90%
    07:00 +5°C° 0 mm 5 mps 742 mmHg 88%
    08:00 +4°C° 0 mm 6 mps 742 mmHg 86%
    09:00 +4°C° 0 mm 6 mps 743 mmHg 81%
    10:00 +5°C° 0 mm 6 mps 743 mmHg 77%
    11:00 +5°C° 0 mm 6 mps 744 mmHg 72%
    12:00 +7°C° 0 mm 6 mps 744 mmHg 68%
    13:00 +7°C° 0 mm 6 mps 745 mmHg 65%
    14:00 +8°C° 0 mm 6 mps 745 mmHg 61%
    15:00 +7°C° 0 mm 5 mps 745 mmHg 64%
    16:00 +6°C° 0 mm 4 mps 746 mmHg 67%
    17:00 +7°C° 0 mm 3 mps 746 mmHg 70%
    18:00 +5°C° 0 mm 3 mps 747 mmHg 72%
    19:00 +4°C° 0 mm 3 mps 747 mmHg 74%
    20:00 +3°C° 0 mm 2 mps 748 mmHg 76%
    21:00 +3°C° 0 mm 2 mps 748 mmHg 77%
    22:00 +3°C° 0 mm 2 mps 748 mmHg 77%
    23:00 +3°C° 0 mm 2 mps 748 mmHg 78%
    Show more